����������;��������(kVARh)
2017-07-10 00:00;18
2017-07-10 00:15;16,8
2017-07-10 00:30;17,85
2017-07-10 00:45;17,2
2017-07-10 01:00;26,25
2017-07-10 01:15;28,25
2017-07-10 01:30;28,4
2017-07-10 01:45;23,95
2017-07-10 02:00;24,55
2017-07-10 02:15;25
2017-07-10 02:30;25,45
2017-07-10 02:45;27,7
2017-07-10 03:00;27,45
2017-07-10 03:15;27,35
2017-07-10 03:30;27,65
2017-07-10 03:45;26,65
2017-07-10 04:00;28,75
2017-07-10 04:15;25,8
2017-07-10 04:30;25,45
2017-07-10 04:45;26,8
2017-07-10 05:00;26,85
2017-07-10 05:15;26,55
2017-07-10 05:30;23,15
2017-07-10 05:45;22,1
2017-07-10 06:00;24,05
2017-07-10 06:15;22,95
2017-07-10 06:30;24,2
2017-07-10 06:45;23,9
2017-07-10 07:00;25,4
2017-07-10 07:15;27,6
2017-07-10 07:30;56,95
2017-07-10 07:45;50,15
2017-07-10 08:00;33
2017-07-10 08:15;34,1
2017-07-10 08:30;32,9
2017-07-10 08:45;37,3
2017-07-10 09:00;43,7
2017-07-10 09:15;45,2
2017-07-10 09:30;47,65
2017-07-10 09:45;56,55
2017-07-10 10:00;69,95
2017-07-10 10:15;68,65
2017-07-10 10:30;76,6
2017-07-10 10:45;82,5
2017-07-10 11:00;77,4
2017-07-10 11:15;88,8
2017-07-10 11:30;114,45
2017-07-10 11:45;110,4
2017-07-10 12:00;88,35
2017-07-10 12:15;101,1
2017-07-10 12:30;97,8
2017-07-10 12:45;100,1
2017-07-10 13:00;99,15
2017-07-10 13:15;88,25
2017-07-10 13:30;84,55
2017-07-10 13:45;82,8
2017-07-10 14:00;82,75
2017-07-10 14:15;82,15
2017-07-10 14:30;80,15
2017-07-10 14:45;75,5
2017-07-10 15:00;69,3
2017-07-10 15:15;66,85
2017-07-10 15:30;62,45
2017-07-10 15:45;58,95
2017-07-10 16:00;57,3
2017-07-10 16:15;51,45
2017-07-10 16:30;52,55
2017-07-10 16:45;50,5
2017-07-10 17:00;47,75
2017-07-10 17:15;47,4
2017-07-10 17:30;48,45
2017-07-10 17:45;46,95
2017-07-10 18:00;44,7
2017-07-10 18:15;45,45
2017-07-10 18:30;43,2
2017-07-10 18:45;39,7
2017-07-10 19:00;36,25
2017-07-10 19:15;29,6
2017-07-10 19:30;29,55
2017-07-10 19:45;26,55
2017-07-10 20:00;27,4
2017-07-10 20:15;28
2017-07-10 20:30;29,2
2017-07-10 20:45;26,35
2017-07-10 21:00;27,95
2017-07-10 21:15;26,6
2017-07-10 21:30;24,9
2017-07-10 21:45;25,5
2017-07-10 22:00;26,1
2017-07-10 22:15;25,65
2017-07-10 22:30;25,3
2017-07-10 22:45;26,2
2017-07-10 23:00;28,25
2017-07-10 23:15;24
2017-07-10 23:30;20,65
2017-07-10 23:45;21,4
2017-07-11 00:00;20,05
2017-07-11 00:15;21,5
2017-07-11 00:30;22,4
2017-07-11 00:45;23,55
2017-07-11 01:00;23,4
2017-07-11 01:15;23,75
2017-07-11 01:30;22,9
2017-07-11 01:45;21,95
2017-07-11 02:00;24
2017-07-11 02:15;27,35
2017-07-11 02:30;26,8
2017-07-11 02:45;25
2017-07-11 03:00;20,6
2017-07-11 03:15;17,75
2017-07-11 03:30;16,35
2017-07-11 03:45;17,45
2017-07-11 04:00;15,2
2017-07-11 04:15;13,7
2017-07-11 04:30;14,6
2017-07-11 04:45;13,8
2017-07-11 05:00;14,5
2017-07-11 05:15;12,65
2017-07-11 05:30;14,2
2017-07-11 05:45;13,1
2017-07-11 06:00;13,95
2017-07-11 06:15;13,65
2017-07-11 06:30;13,3
2017-07-11 06:45;15,2
2017-07-11 07:00;11,95
2017-07-11 07:15;16,65
2017-07-11 07:30;53,45
2017-07-11 07:45;42,65
2017-07-11 08:00;29,2
2017-07-11 08:15;29,05
2017-07-11 08:30;30,6
2017-07-11 08:45;28,85
2017-07-11 09:00;35,75
2017-07-11 09:15;49,6
2017-07-11 09:30;55,65
2017-07-11 09:45;56,5
2017-07-11 10:00;55,15
2017-07-11 10:15;63,9
2017-07-11 10:30;67,75
2017-07-11 10:45;96,5
2017-07-11 11:00;97,2
2017-07-11 11:15;75,55
2017-07-11 11:30;75,05
2017-07-11 11:45;82,55
2017-07-11 12:00;78,15
2017-07-11 12:15;78,15
2017-07-11 12:30;78,2
2017-07-11 12:45;74,95
2017-07-11 13:00;73,75
2017-07-11 13:15;80,3
2017-07-11 13:30;82,7
2017-07-11 13:45;79,25
2017-07-11 14:00;84,7
2017-07-11 14:15;79,35
2017-07-11 14:30;75,35
2017-07-11 14:45;67,5
2017-07-11 15:00;64,45
2017-07-11 15:15;61,1
2017-07-11 15:30;63,75
2017-07-11 15:45;57,35
2017-07-11 16:00;53,85
2017-07-11 16:15;53,15
2017-07-11 16:30;51,15
2017-07-11 16:45;47,4
2017-07-11 17:00;38,2
2017-07-11 17:15;37,9
2017-07-11 17:30;36,3
2017-07-11 17:45;36,5
2017-07-11 18:00;31,55
2017-07-11 18:15;30,9
2017-07-11 18:30;27,25
2017-07-11 18:45;27,5
2017-07-11 19:00;21,85
2017-07-11 19:15;20,35
2017-07-11 19:30;18,6
2017-07-11 19:45;18,7
2017-07-11 20:00;16,85
2017-07-11 20:15;16
2017-07-11 20:30;19,65
2017-07-11 20:45;21,6
2017-07-11 21:00;22,7
2017-07-11 21:15;21,3
2017-07-11 21:30;23,1
2017-07-11 21:45;21,2
2017-07-11 22:00;20,65
2017-07-11 22:15;23,75
2017-07-11 22:30;24,9
2017-07-11 22:45;25,15
2017-07-11 23:00;23,7
2017-07-11 23:15;24,8
2017-07-11 23:30;21,1
2017-07-11 23:45;22,2
2017-07-12 00:00;13,85
2017-07-12 00:15;14,3
2017-07-12 00:30;16,3
2017-07-12 00:45;15,3
2017-07-12 01:00;16,85
2017-07-12 01:15;15,95
2017-07-12 01:30;18
2017-07-12 01:45;12,6
2017-07-12 02:00;14,35
2017-07-12 02:15;15
2017-07-12 02:30;15,95
2017-07-12 02:45;16
2017-07-12 03:00;18,55
2017-07-12 03:15;15,8
2017-07-12 03:30;17,2
2017-07-12 03:45;15,35
2017-07-12 04:00;14,95
2017-07-12 04:15;14,85
2017-07-12 04:30;14
2017-07-12 04:45;13,5
2017-07-12 05:00;14,2
2017-07-12 05:15;13,4
2017-07-12 05:30;13,55
2017-07-12 05:45;13,15
2017-07-12 06:00;13,4
2017-07-12 06:15;13,4
2017-07-12 06:30;15,55
2017-07-12 06:45;23,95
2017-07-12 07:00;25,4
2017-07-12 07:15;27,25
2017-07-12 07:30;60,6
2017-07-12 07:45;54,3
2017-07-12 08:00;38,55
2017-07-12 08:15;66,2
2017-07-12 08:30;69,3
2017-07-12 08:45;49
2017-07-12 09:00;66,75
2017-07-12 09:15;68,85
2017-07-12 09:30;71,55
2017-07-12 09:45;72,95
2017-07-12 10:00;74,65
2017-07-12 10:15;76,15
2017-07-12 10:30;73,15
2017-07-12 10:45;78,5
2017-07-12 11:00;82,25
2017-07-12 11:15;85,25
2017-07-12 11:30;89,35
2017-07-12 11:45;92,8
2017-07-12 12:00;89,7
2017-07-12 12:15;90,05
2017-07-12 12:30;85,65
2017-07-12 12:45;87,75
2017-07-12 13:00;88,95
2017-07-12 13:15;90,55
2017-07-12 13:30;86,75
2017-07-12 13:45;108,35
2017-07-12 14:00;94,25
2017-07-12 14:15;88,15
2017-07-12 14:30;82,85
2017-07-12 14:45;78,45
2017-07-12 15:00;75,35
2017-07-12 15:15;63,65
2017-07-12 15:30;63,5
2017-07-12 15:45;57
2017-07-12 16:00;53,15
2017-07-12 16:15;56,15
2017-07-12 16:30;52,15
2017-07-12 16:45;46,35
2017-07-12 17:00;41,75
2017-07-12 17:15;40,5
2017-07-12 17:30;37,5
2017-07-12 17:45;45,95
2017-07-12 18:00;48,35
2017-07-12 18:15;47,2
2017-07-12 18:30;46,7
2017-07-12 18:45;44,6
2017-07-12 19:00;40,05
2017-07-12 19:15;36,25
2017-07-12 19:30;35,55
2017-07-12 19:45;34,65
2017-07-12 20:00;34,9
2017-07-12 20:15;31,95
2017-07-12 20:30;31,2
2017-07-12 20:45;31,65
2017-07-12 21:00;29,95
2017-07-12 21:15;17,9
2017-07-12 21:30;18,1
2017-07-12 21:45;18,6
2017-07-12 22:00;20,05
2017-07-12 22:15;20,7
2017-07-12 22:30;21,6
2017-07-12 22:45;21,5
2017-07-12 23:00;17,25
2017-07-12 23:15;12,65
2017-07-12 23:30;14,3
2017-07-12 23:45;14,2
2017-07-13 00:00;14,2
2017-07-13 00:15;16,1
2017-07-13 00:30;14,4
2017-07-13 00:45;10,65
2017-07-13 01:00;11,35
2017-07-13 01:15;11,35
2017-07-13 01:30;10
2017-07-13 01:45;9,85
2017-07-13 02:00;9,1
2017-07-13 02:15;8,05
2017-07-13 02:30;9,15
2017-07-13 02:45;10
2017-07-13 03:00;11,35
2017-07-13 03:15;12,95
2017-07-13 03:30;12,35
2017-07-13 03:45;11,9
2017-07-13 04:00;13,65
2017-07-13 04:15;14,65
2017-07-13 04:30;13,75
2017-07-13 04:45;13,65
2017-07-13 05:00;12,45
2017-07-13 05:15;12,4
2017-07-13 05:30;12,25
2017-07-13 05:45;11
2017-07-13 06:00;10,65
2017-07-13 06:15;16,05
2017-07-13 06:30;19,95
2017-07-13 06:45;27,15
2017-07-13 07:00;28
2017-07-13 07:15;29,85
2017-07-13 07:30;61
2017-07-13 07:45;49,55
2017-07-13 08:00;44,1
2017-07-13 08:15;45,95
2017-07-13 08:30;45,25
2017-07-13 08:45;47,55
2017-07-13 09:00;54,8
2017-07-13 09:15;61,9
2017-07-13 09:30;62,3
2017-07-13 09:45;62,3
2017-07-13 10:00;58,95
2017-07-13 10:15;60,45
2017-07-13 10:30;63,6
2017-07-13 10:45;93,8
2017-07-13 11:00;85,75
2017-07-13 11:15;88,15
2017-07-13 11:30;85,6
2017-07-13 11:45;88,15
2017-07-13 12:00;97
2017-07-13 12:15;87,9
2017-07-13 12:30;98,55
2017-07-13 12:45;90,65
2017-07-13 13:00;87,15
2017-07-13 13:15;84,5
2017-07-13 13:30;86,7
2017-07-13 13:45;96,95
2017-07-13 14:00;115,65
2017-07-13 14:15;109,35
2017-07-13 14:30;86,8
2017-07-13 14:45;83
2017-07-13 15:00;76
2017-07-13 15:15;70,85
2017-07-13 15:30;72,7
2017-07-13 15:45;64,2
2017-07-13 16:00;62,75
2017-07-13 16:15;57,5
2017-07-13 16:30;55,45
2017-07-13 16:45;52,05
2017-07-13 17:00;47,1
2017-07-13 17:15;47,05
2017-07-13 17:30;46,6
2017-07-13 17:45;43,7
2017-07-13 18:00;41,7
2017-07-13 18:15;41,65
2017-07-13 18:30;40,25
2017-07-13 18:45;39,1
2017-07-13 19:00;32,6
2017-07-13 19:15;27,35
2017-07-13 19:30;28,65
2017-07-13 19:45;29,45
2017-07-13 20:00;30,5
2017-07-13 20:15;28,8
2017-07-13 20:30;25,4
2017-07-13 20:45;26,45
2017-07-13 21:00;24,95
2017-07-13 21:15;26,6
2017-07-13 21:30;26,45
2017-07-13 21:45;28,65
2017-07-13 22:00;29,4
2017-07-13 22:15;30,85
2017-07-13 22:30;29,35
2017-07-13 22:45;31,25
2017-07-13 23:00;32,15
2017-07-13 23:15;28,7
2017-07-13 23:30;24,65
2017-07-13 23:45;24,5
2017-07-14 00:00;22,45
2017-07-14 00:15;22,1
2017-07-14 00:30;22,25
2017-07-14 00:45;24,75
2017-07-14 01:00;20,9
2017-07-14 01:15;15,65
2017-07-14 01:30;15,25
2017-07-14 01:45;15,15
2017-07-14 02:00;15,6
2017-07-14 02:15;16,25
2017-07-14 02:30;16,25
2017-07-14 02:45;16,2
2017-07-14 03:00;15,6
2017-07-14 03:15;15,8
2017-07-14 03:30;16
2017-07-14 03:45;15,5
2017-07-14 04:00;15,4
2017-07-14 04:15;16,2
2017-07-14 04:30;16,1
2017-07-14 04:45;17,05
2017-07-14 05:00;15,15
2017-07-14 05:15;15,9
2017-07-14 05:30;15,2
2017-07-14 05:45;15,25
2017-07-14 06:00;16,15
2017-07-14 06:15;15,25
2017-07-14 06:30;17,3
2017-07-14 06:45;16,05
2017-07-14 07:00;17,6
2017-07-14 07:15;14,2
2017-07-14 07:30;48,3
2017-07-14 07:45;40,25
2017-07-14 08:00;27,15
2017-07-14 08:15;35,15
2017-07-14 08:30;47,25
2017-07-14 08:45;46,95
2017-07-14 09:00;51
2017-07-14 09:15;55,95
2017-07-14 09:30;60,45
2017-07-14 09:45;64,8
2017-07-14 10:00;66,85
2017-07-14 10:15;68,2
2017-07-14 10:30;69,45
2017-07-14 10:45;69,6
2017-07-14 11:00;67,95
2017-07-14 11:15;72,9
2017-07-14 11:30;77,55
2017-07-14 11:45;77,95
2017-07-14 12:00;94,15
2017-07-14 12:15;87,7
2017-07-14 12:30;85,55
2017-07-14 12:45;86
2017-07-14 13:00;88,35
2017-07-14 13:15;108,65
2017-07-14 13:30;101,75
2017-07-14 13:45;84,4
2017-07-14 14:00;89,2
2017-07-14 14:15;72,35
2017-07-14 14:30;74,15
2017-07-14 14:45;72,75
2017-07-14 15:00;69,7
2017-07-14 15:15;72
2017-07-14 15:30;66,6
2017-07-14 15:45;60,85
2017-07-14 16:00;59,95
2017-07-14 16:15;63,9
2017-07-14 16:30;97,1
2017-07-14 16:45;89,6
2017-07-14 17:00;70,5
2017-07-14 17:15;56,6
2017-07-14 17:30;64,55
2017-07-14 17:45;44,8
2017-07-14 18:00;51,2
2017-07-14 18:15;39,65
2017-07-14 18:30;37,25
2017-07-14 18:45;36,35
2017-07-14 19:00;35,6
2017-07-14 19:15;31,65
2017-07-14 19:30;31,25
2017-07-14 19:45;29,95
2017-07-14 20:00;30,4
2017-07-14 20:15;28,75
2017-07-14 20:30;29,4
2017-07-14 20:45;33,1
2017-07-14 21:00;29,05
2017-07-14 21:15;29,05
2017-07-14 21:30;32,65
2017-07-14 21:45;30,25
2017-07-14 22:00;22,55
2017-07-14 22:15;24,15
2017-07-14 22:30;25,3
2017-07-14 22:45;23,45
2017-07-14 23:00;23,15
2017-07-14 23:15;23
2017-07-14 23:30;22,5
2017-07-14 23:45;17,25
2017-07-15 00:00;16,75
2017-07-15 00:15;15,25
2017-07-15 00:30;16,65
2017-07-15 00:45;16,55
2017-07-15 01:00;18,05
2017-07-15 01:15;11,4
2017-07-15 01:30;7,05
2017-07-15 01:45;4,85
2017-07-15 02:00;5,1
2017-07-15 02:15;4,8
2017-07-15 02:30;5,4
2017-07-15 02:45;5,4
2017-07-15 03:00;7,2
2017-07-15 03:15;7,6
2017-07-15 03:30;7,9
2017-07-15 03:45;7,7
2017-07-15 04:00;8,5
2017-07-15 04:15;8,6
2017-07-15 04:30;8,15
2017-07-15 04:45;7,05
2017-07-15 05:00;6,7
2017-07-15 05:15;4,1
2017-07-15 05:30;3,7
2017-07-15 05:45;4
2017-07-15 06:00;3,7
2017-07-15 06:15;4,75
2017-07-15 06:30;4,45
2017-07-15 06:45;3,9
2017-07-15 07:00;3,6
2017-07-15 07:15;1,7
2017-07-15 07:30;1
2017-07-15 07:45;3,85
2017-07-15 08:00;6,35
2017-07-15 08:15;3,3
2017-07-15 08:30;9,55
2017-07-15 08:45;14,4
2017-07-15 09:00;18,3
2017-07-15 09:15;11,55
2017-07-15 09:30;12,4
2017-07-15 09:45;13,4
2017-07-15 10:00;8,9
2017-07-15 10:15;6,8
2017-07-15 10:30;5,5
2017-07-15 10:45;7,5
2017-07-15 11:00;13,2
2017-07-15 11:15;14
2017-07-15 11:30;14,4
2017-07-15 11:45;13,35
2017-07-15 12:00;14,55
2017-07-15 12:15;12,75
2017-07-15 12:30;14,2
2017-07-15 12:45;12,4
2017-07-15 13:00;14,1
2017-07-15 13:15;15,3
2017-07-15 13:30;17,15
2017-07-15 13:45;17,3
2017-07-15 14:00;20
2017-07-15 14:15;18,85
2017-07-15 14:30;20,1
2017-07-15 14:45;20,7
2017-07-15 15:00;15,05
2017-07-15 15:15;14
2017-07-15 15:30;14,15
2017-07-15 15:45;14,2
2017-07-15 16:00;13,25
2017-07-15 16:15;14,65
2017-07-15 16:30;15,2
2017-07-15 16:45;15,65
2017-07-15 17:00;16,4
2017-07-15 17:15;16,8
2017-07-15 17:30;16,4
2017-07-15 17:45;15,3
2017-07-15 18:00;15,25
2017-07-15 18:15;16,1
2017-07-15 18:30;16,35
2017-07-15 18:45;15,25
2017-07-15 19:00;14,6
2017-07-15 19:15;14,65
2017-07-15 19:30;14,95
2017-07-15 19:45;16,05
2017-07-15 20:00;15,45
2017-07-15 20:15;15,3
2017-07-15 20:30;14,75
2017-07-15 20:45;17,1
2017-07-15 21:00;16,25
2017-07-15 21:15;16,1
2017-07-15 21:30;15,95
2017-07-15 21:45;16,45
2017-07-15 22:00;14,9
2017-07-15 22:15;15,75
2017-07-15 22:30;17,15
2017-07-15 22:45;17,75
2017-07-15 23:00;17,85
2017-07-15 23:15;16,05
2017-07-15 23:30;13,4
2017-07-15 23:45;14,5
2017-07-16 00:00;14,15
2017-07-16 00:15;10
2017-07-16 00:30;8,95
2017-07-16 00:45;10,6
2017-07-16 01:00;10,4
2017-07-16 01:15;9,6
2017-07-16 01:30;4,7
2017-07-16 01:45;5,6
2017-07-16 02:00;5,45
2017-07-16 02:15;4,85
2017-07-16 02:30;5
2017-07-16 02:45;6,3
2017-07-16 03:00;7,85
2017-07-16 03:15;8,85
2017-07-16 03:30;7,1
2017-07-16 03:45;8,05
2017-07-16 04:00;8,2
2017-07-16 04:15;9,05
2017-07-16 04:30;8,85
2017-07-16 04:45;8,65
2017-07-16 05:00;5,45
2017-07-16 05:15;6,15
2017-07-16 05:30;5,9
2017-07-16 05:45;5,15
2017-07-16 06:00;7,65
2017-07-16 06:15;6,95
2017-07-16 06:30;7
2017-07-16 06:45;5,45
2017-07-16 07:00;6,1
2017-07-16 07:15;6,7
2017-07-16 07:30;7,15
2017-07-16 07:45;7,75
2017-07-16 08:00;6,4
2017-07-16 08:15;8,9
2017-07-16 08:30;10,1
2017-07-16 08:45;10,95
2017-07-16 09:00;10,45
2017-07-16 09:15;13,7
2017-07-16 09:30;12,95
2017-07-16 09:45;12,7
2017-07-16 10:00;9,15
2017-07-16 10:15;8,75
2017-07-16 10:30;8,75
2017-07-16 10:45;8,3
2017-07-16 11:00;7,8
2017-07-16 11:15;6,6
2017-07-16 11:30;4,45
2017-07-16 11:45;4,95
2017-07-16 12:00;3,8
2017-07-16 12:15;4,3
2017-07-16 12:30;2,35
2017-07-16 12:45;2,25
2017-07-16 13:00;6,95
2017-07-16 13:15;9
2017-07-16 13:30;8,6
2017-07-16 13:45;8,65
2017-07-16 14:00;11,1
2017-07-16 14:15;12,3
2017-07-16 14:30;12,95
2017-07-16 14:45;10,65
2017-07-16 15:00;12,3
2017-07-16 15:15;12,9
2017-07-16 15:30;12,75
2017-07-16 15:45;9,55
2017-07-16 16:00;8
2017-07-16 16:15;7,35
2017-07-16 16:30;9,75
2017-07-16 16:45;16,55
2017-07-16 17:00;16,95
2017-07-16 17:15;17,25
2017-07-16 17:30;16,7
2017-07-16 17:45;16,85
2017-07-16 18:00;15,9
2017-07-16 18:15;13,7
2017-07-16 18:30;12,6
2017-07-16 18:45;12,15
2017-07-16 19:00;13,1
2017-07-16 19:15;19,05
2017-07-16 19:30;18,4
2017-07-16 19:45;18,55
2017-07-16 20:00;19,45
2017-07-16 20:15;20,9
2017-07-16 20:30;22,35
2017-07-16 20:45;22,95
2017-07-16 21:00;23,5
2017-07-16 21:15;21,85
2017-07-16 21:30;22,8
2017-07-16 21:45;23,25
2017-07-16 22:00;24,8
2017-07-16 22:15;25,5
2017-07-16 22:30;25,45
2017-07-16 22:45;20,15
2017-07-16 23:00;20,35
2017-07-16 23:15;19,35
2017-07-16 23:30;18,6
2017-07-16 23:45;20,2

